{"data":{"norad_id":62128,"intl_designator":"2024-222Q","name":"STARLINK-32568","alt_names":[],"object_type":"PAYLOAD","status":"ACTIVE","operator":null,"country":"US","launch_date":"2024-11-27","launch_site_code":"AFETR","launch_vehicle":null,"mission":null,"orbit_class":"UNKNOWN","rcs_meters":null,"size_class":null,"mass_kg":null,"dimensions":null,"purposes":["comms"],"wikipedia_slug":null,"has_3d_model":false,"image_url":null,"decayed_at":null,"tle_current":{"epoch":"2026-09-19T23:53:32.483904Z","epoch_age_seconds":225424,"freshness":"STALE","line1":"1 62128U 24222Q   26262.99551486  .00011054  00000+0  41045-3 0  9993","line2":"2 62128  43.0003 119.0077 0000754 248.4584 111.6188 15.27592846102207","mean_motion":15.27592846,"eccentricity":7.54e-5,"inclination_deg":43.0003,"raan_deg":119.0077,"arg_perigee_deg":248.4584,"mean_anomaly_deg":111.6188,"bstar":0.00041045,"rev_number":10220,"period_min":94.26595599545,"perigee_km":482.49330023253,"apogee_km":483.52796129525,"semimajor_km":6861.1476307639,"source":"CELESTRAK","updated_at":"2026-09-22T09:00:49.526499Z"}}}